Wetbulb
56.71 56.58 56.88 56.29 56.01 55.88 55.95 56.37 56.94 56.95 57.01 57.12 57.14 57.18 57.36 57.37 57.59 57.50 57.60 57.92 57.49 57.48 58.16 59.38 60.37 60.79 63.83 61.95 63.15 69.88 73.12 74.87 73.86 73.66 72.97 71.50 69.48 69.29 66.50 67.64 68.57 66.84 66.88 67.82 68.97 68.17 67.67
56.41 56.32 56.30 56.08 55.79 55.73 55.88 56.18 56.15 56.42 56.67 56.81 56.72 56.82 56.82 56.36 56.79 57.08 57.41 57.59 57.45 57.65 58.51 59.30 60.34 60.54 62.74 59.65 66.79 70.86 66.28 72.22 72.12 73.04 72.49 71.78 69.78 70.42 69.06 67.69 67.15 68.03 67.22 66.72 67.87 68.41 68.22
56.13 56.09 56.02 55.81 55.66 55.38 55.67 55.83 56.47 56.46 56.55 56.52 56.51 56.63 56.18 56.21 56.65 56.77 56.64 56.82 56.94 57.78 58.75 60.10 60.83 63.16 57.44 57.72 67.41 72.06 66.95 69.37 69.10 72.45 70.88 72.22 72.17 69.95 69.80 67.22 69.21 67.84 63.92 66.14 66.90 67.33 66.69
55.65 55.61 55.63 55.54 55.45 55.36 55.94 56.13 55.97 56.16 56.27 56.30 56.28 56.25 55.67 55.83 56.15 55.86 56.12 56.14 56.83 58.30 60.10 60.79 61.14 63.23 58.35 63.30 68.02 68.48 67.54 66.24 67.37 70.98 71.00 72.51 72.73 70.66 69.29 69.80 67.15 64.05 63.81 61.68 64.82 66.86 66.46
55.46 55.30 55.28 55.84 56.04 55.63 55.43 55.23 55.63 55.97 56.10 55.95 55.80 55.24 55.39 55.53 55.45 55.28 55.15 55.56 57.07 59.42 60.66 61.65 63.74 59.98 59.10 66.20 64.20 67.07 67.16 64.69 65.91 66.84 67.76 69.66 69.99 68.33 68.45 64.72 62.82 62.35 59.37 59.30 61.50 66.08 65.47
55.31 55.04 55.22 55.77 55.37 55.06 54.99 55.34 55.57 55.38 55.23 55.10 54.93 54.90 55.04 55.10 55.05 55.03 55.13 55.70 58.12 59.22 61.59 63.34 60.98 56.45 58.56 60.29 63.22 65.31 66.73 67.54 65.12 65.38 65.58 66.82 67.94 66.15 66.03 62.69 56.51 57.29 58.60 59.65 59.66 63.68 64.87
54.99 55.27 55.32 55.00 55.14 54.89 54.81 55.14 54.82 54.86 54.76 54.44 54.69 54.53 54.44 54.69 54.81 54.86 57.17 61.08 59.57 58.91 58.60 56.95 57.23 57.10 58.69 61.88 65.88 63.77 65.64 67.52 69.28 67.51 64.66 66.69 63.84 61.97 62.52 62.45 60.48 59.50 60.01 58.71 60.35 62.87 63.12
55.48 54.83 54.96 55.01 54.84 54.64 54.50 54.54 54.48 54.54 54.64 54.42 54.18 54.12 54.16 53.93 53.66 54.36 57.12 58.02 57.10 57.90 54.98 58.60 57.54 56.24 57.82 58.57 57.45 62.78 65.24 62.68 64.54 62.83 64.71 63.13 60.57 64.05 63.89 62.95 60.31 59.14 59.07 58.09 60.25 62.21 62.35
54.76 54.97 54.94 54.64 54.74 54.48 54.73 54.19 54.32 54.21 54.27 54.53 53.99 53.83 53.60 53.15 53.93 57.16 57.84 58.04 60.60 59.90 55.94 55.87 56.79 56.27 57.27 58.55 57.91 59.65 64.03 62.57 61.76 61.58 62.29 60.89 62.42 63.24 61.83 61.46 59.37 59.60 58.13 57.39 56.65 58.61 63.53
54.64 54.89 55.26 54.65 55.31 54.80 54.52 54.31 54.31 54.76 54.20 54.06 54.19 53.43 53.17 52.15 55.20 57.14 57.81 59.54 60.62 60.01 53.22 53.59 54.22 56.19 57.30 57.92 56.49 61.91 63.94 62.57 60.41 59.61 61.24 60.93 63.12 61.45 60.72 59.19 59.70 57.88 58.24 57.53 57.48 57.84 55.65
54.94 55.32 55.11 55.08 55.40 55.43 54.76 54.84 54.94 54.78 54.44 53.71 53.58 53.31 52.50 52.02 56.28 58.27 59.67 60.22 60.52 58.70 45.24 53.44 55.36 59.69 57.62 55.88 58.42 58.45 63.27 61.79 58.36 59.54 60.76 58.64 59.32 59.08 58.11 59.27 59.26 59.21 59.08 58.07 58.45 58.12 58.01
54.94 55.04 55.38 55.70 55.43 55.76 55.44 55.21 55.19 55.19 54.60 54.01 53.39 52.92 52.57 56.29 58.17 58.32 59.39 59.62 58.92 51.31 43.55 53.32 55.62 54.47 53.89 55.15 55.90 57.88 60.19 62.43 61.69 58.70 59.72 59.60 61.87 60.22 60.03 59.82 59.48 60.01 58.70 58.90 58.89 58.25 53.44
54.47 54.87 55.24 55.67 55.80 55.74 55.37 55.25 55.17 54.28 53.58 53.48 53.29 52.28 52.49 56.85 56.88 59.53 58.99 58.59 52.21 46.68 52.28 52.55 52.99 54.73 54.62 53.30 53.40 56.07 56.51 56.70 56.43 54.22 54.96 57.86 58.40 61.02 60.91 58.21 59.90 58.38 56.87 53.00 51.96 52.03 51.93
55.26 55.42 55.75 55.78 55.60 55.31 55.21 55.15 54.81 53.76 53.46 52.96 52.29 51.76 55.07 57.03 59.83 58.85 58.30 55.59 48.19 49.67 49.95 55.43 54.58 54.45 53.10 54.15 53.02 53.74 55.32 54.81 58.20 57.81 55.28 53.59 52.32 57.68 59.48 57.53 56.07 57.11 56.85 53.55 49.04 49.72 51.95
55.40 55.59 55.72 55.68 55.45 55.09 55.09 54.95 54.24 53.37 52.88 52.32 51.30 58.45 59.18 60.60 59.90 59.34 56.94 50.70 51.69 51.68 53.04 52.87 54.45 52.75 52.85 52.82 52.40 52.97 53.55 54.64 56.17 56.93 53.84 53.05 52.75 57.85 57.25 57.66 57.10 54.81 53.60 58.30 54.65 55.27 51.86
55.17 55.41 55.50 55.44 55.19 55.17 55.09 54.97 54.40 53.41 52.55 52.07 58.41 58.84 60.50 61.49 61.03 57.32 54.78 49.50 52.72 54.10 54.83 53.93 51.70 52.92 51.89 52.11 52.51 52.78 53.12 55.01 54.92 57.12 58.23 55.90 51.73 56.02 56.63 57.56 57.04 55.84 57.88 52.77 54.09 49.38 48.55
55.24 55.28 55.37 55.27 55.13 54.93 54.87 54.72 54.36 53.10 52.15 51.69 58.18 57.10 58.32 60.26 58.47 53.86 49.96 52.06 53.64 55.41 55.49 52.34 52.07 51.42 51.93 50.98 53.36 53.09 53.18 55.05 56.19 56.07 57.86 55.79 53.82 53.59 55.89 54.03 53.52 54.41 53.43 54.88 55.39 54.10 50.05
55.30 55.32 55.13 55.25 55.07 54.82 54.60 54.50 53.87 52.76 51.17 52.00 57.24 54.71 58.54 59.45 50.99 51.98 49.94 52.77 52.30 53.78 54.98 53.59 53.37 52.68 51.96 52.29 52.17 53.13 53.39 55.77 56.80 56.82 53.35 56.18 54.25 51.91 53.27 56.65 57.28 56.17 55.22 55.50 51.96 52.24 53.48
54.73 55.18 55.01 54.99 54.97 54.70 54.68 54.25 53.71 52.59 51.34 57.32 58.64 57.58 60.20 59.12 48.70 49.14 51.66 51.12 52.47 51.84 52.87 52.68 51.87 52.53 53.59 52.55 51.25 53.33 54.55 56.95 57.25 56.83 56.85 56.69 54.03 50.67 52.45 54.22 55.16 53.38 54.64 54.91 54.94 55.02 51.95
54.49 54.75 54.97 54.87 54.76 54.74 54.72 54.38 53.95 53.02 51.84 55.71 58.78 53.92 55.74 56.12 56.91 52.23 50.46 50.39 50.40 55.03 53.94 55.09 54.23 54.62 53.03 51.78 53.78 52.18 53.55 56.29 57.85 58.45 59.35 60.56 56.05 53.98 50.99 53.49 54.56 52.82 53.55 54.97 54.07 50.96 51.79
54.16 54.32 54.79 54.89 54.97 55.03 54.99 54.58 54.19 52.90 51.87 56.30 59.53 56.20 55.57 51.16 53.28 54.30 54.66 54.21 52.00 52.51 56.70 57.25 55.41 54.64 53.32 51.39 51.79 51.25 53.68 54.96 57.05 60.71 58.51 57.61 54.38 56.09 55.70 55.90 54.53 53.24 52.95 54.13 53.34 54.13 51.53
54.08 54.08 54.44 54.79 54.95 55.03 55.03 54.82 54.21 52.29 50.86 57.86 55.66 55.35 58.53 57.33 54.46 54.43 51.16 54.46 53.29 54.21 54.88 54.95 54.74 55.63 56.87 53.29 53.11 51.77 54.64 55.77 55.52 58.73 58.64 58.37 54.09 56.60 54.72 56.68 56.60 55.20 55.80 55.49 54.57 54.67 55.18
53.91 53.87 53.95 54.62 54.79 55.05 55.11 54.97 54.17 51.65 52.21 57.19 57.86 58.34 55.03 50.29 55.08 54.74 54.79 54.51 53.98 54.74 56.38 56.94 56.08 55.97 56.49 56.38 58.21 59.31 59.67 59.27 59.36 57.82 57.70 58.28 56.29 55.66 52.31 55.70 55.44 52.72 55.16 56.24 57.39 57.85 57.13
53.64 53.70 53.97 54.22 54.67 55.01 55.15 55.03 54.31 52.45 50.95 55.34 55.60 55.66 52.69 51.07 53.17 54.59 53.63 53.57 54.16 54.68 53.92 55.46 56.05 56.72 58.47 59.32 61.31 60.63 59.68 59.15 59.14 58.58 59.04 57.25 58.13 56.54 52.63 54.53 47.71 55.68 58.31 58.13 57.26 58.53 59.57
53.50 53.52 53.93 53.97 54.22 54.40 54.97 55.16 54.76 53.48 51.50 55.03 56.58 54.96 53.79 50.29 50.90 49.51 50.56 52.14 53.17 54.55 53.78 53.82 55.90 60.08 58.07 59.37 57.08 55.00 54.77 55.44 56.04 57.60 58.53 59.21 56.79 53.78 51.45 50.95 53.81 54.92 56.96 57.21 56.64 56.89 60.10
53.56 53.56 53.58 53.76 53.87 54.12 54.24 54.76 54.81 53.85 51.57 55.37 55.83 55.32 54.08 50.68 51.35 51.22 51.38 51.50 50.60 51.77 52.73 54.24 57.23 57.49 59.18 57.10 55.17 51.39 49.14 51.90 51.23 53.77 58.55 58.18 59.38 55.00 53.14 49.46 47.04 54.87 59.86 62.66 62.00 53.72 59.99
53.60 53.48 53.54 53.52 53.76 53.83 53.99 54.23 54.66 53.69 51.90 53.09 55.03 54.85 53.79 49.91 53.37 53.47 51.49 50.97 51.33 50.54 50.63 53.02 53.28 54.77 58.30 54.23 52.63 50.99 50.62 54.42 50.11 50.49 52.13 53.29 54.32 51.63 51.55 50.09 52.33 57.81 59.24 61.73 52.17 54.16 64.13
53.81 53.70 53.54 53.72 53.68 53.76 53.75 53.97 54.23 53.62 52.77 52.91 55.01 56.82 52.81 50.38 51.58 52.23 52.44 51.44 51.47 52.22 49.20 52.64 50.84 54.48 53.54 51.64 51.90 52.45 51.91 53.49 53.07 54.46 53.17 52.27 51.03 50.28 51.42 49.17 46.99 60.38 59.57 54.97 60.65 64.55 66.49
53.50 53.46 53.62 53.67 53.83 53.80 53.62 53.70 53.75 53.72 52.77 52.23 53.98 56.05 55.26 50.58 52.21 54.78 55.44 56.12 55.26 55.49 52.44 53.49 52.14 52.46 55.16 53.90 55.80 55.27 52.49 54.91 53.79 49.32 56.76 51.42 54.97 52.89 54.07 53.36 60.82 61.67 61.36 63.81 64.47 64.92 65.91
MSLP
1022.19 1021.92 1021.59 1021.27 1020.98 1020.66 1020.36 1019.96 1019.58 1019.10 1018.60 1018.40 1018.01 1017.57 1017.18 1016.81 1016.31 1015.91 1015.65 1015.27 1014.85 1014.52 1014.14 1013.77 1013.57 1013.51 1012.80 1010.14 1008.87 1008.61 1009.97 1009.96 1009.68 1009.17 1008.17 1007.91 1007.16 1006.76 1006.05 1005.78 1005.55 1004.85 1004.48 1004.42 1004.49 1004.79 1004.73
1022.40 1022.10 1021.77 1021.46 1021.12 1020.75 1020.45 1020.07 1019.66 1019.22 1018.69 1018.29 1018.07 1017.58 1017.13 1016.86 1016.31 1015.83 1015.39 1015.11 1014.66 1014.10 1013.84 1013.58 1013.37 1013.50 1011.67 1008.95 1008.42 1008.75 1008.97 1009.48 1009.07 1008.70 1007.98 1007.67 1007.21 1007.12 1006.15 1005.63 1005.18 1004.88 1004.39 1004.04 1004.05 1004.34 1004.66
1022.66 1022.40 1022.03 1021.64 1021.31 1020.92 1020.50 1020.15 1019.71 1019.28 1018.83 1018.32 1017.92 1017.61 1017.10 1016.60 1016.16 1015.61 1015.12 1014.72 1014.40 1013.91 1013.49 1013.24 1013.16 1012.60 1010.27 1008.84 1008.38 1008.50 1008.75 1008.77 1008.75 1008.23 1007.79 1007.60 1007.47 1007.00 1006.10 1005.00 1005.11 1004.47 1003.42 1003.45 1003.77 1004.00 1004.05
1022.80 1022.48 1022.19 1021.82 1021.46 1021.06 1020.70 1020.34 1019.95 1019.49 1018.96 1018.42 1017.97 1017.56 1017.18 1016.65 1016.05 1015.53 1015.00 1014.38 1014.05 1013.59 1013.14 1012.94 1012.87 1011.67 1008.62 1008.50 1008.38 1008.56 1008.40 1008.45 1008.57 1008.34 1008.01 1007.81 1007.52 1006.92 1006.02 1005.30 1004.32 1003.58 1002.95 1002.31 1003.27 1003.82 1004.28
1022.96 1022.60 1022.22 1021.84 1021.56 1021.25 1020.84 1020.43 1020.08 1019.63 1019.09 1018.53 1017.92 1017.41 1016.97 1016.51 1016.02 1015.47 1014.70 1014.20 1013.64 1013.27 1012.99 1012.71 1012.04 1010.42 1007.84 1009.06 1008.18 1007.83 1007.94 1007.63 1008.00 1008.12 1008.11 1008.02 1007.39 1006.06 1005.11 1004.05 1003.34 1002.95 1002.45 1002.58 1002.76 1003.47 1003.76
1023.09 1022.75 1022.35 1021.98 1021.56 1021.22 1020.87 1020.47 1020.01 1019.56 1019.18 1018.72 1018.11 1017.56 1016.82 1016.05 1015.48 1015.08 1014.38 1013.67 1013.10 1013.03 1012.73 1011.93 1010.99 1009.81 1007.96 1007.24 1007.51 1007.69 1008.02 1007.75 1007.48 1007.55 1007.60 1007.26 1006.26 1004.86 1004.12 1003.23 1002.70 1003.04 1002.52 1002.62 1002.68 1002.98 1003.40
1023.17 1022.84 1022.47 1022.13 1021.67 1021.26 1020.80 1020.40 1020.02 1019.59 1019.12 1018.57 1018.02 1017.48 1016.89 1016.31 1015.35 1014.62 1013.32 1012.78 1012.76 1011.68 1010.44 1008.42 1007.87 1007.43 1006.95 1007.23 1007.45 1007.37 1007.71 1007.55 1007.08 1006.93 1006.01 1006.19 1005.15 1003.75 1003.89 1004.15 1004.15 1003.75 1003.10 1002.87 1003.05 1003.41 1003.15
1023.35 1022.95 1022.56 1022.16 1021.73 1021.32 1020.81 1020.33 1019.74 1019.22 1018.71 1018.30 1017.87 1017.37 1016.75 1016.05 1015.52 1014.63 1013.92 1010.90 1011.13 1011.02 1008.77 1007.66 1007.55 1007.39 1007.20 1007.12 1006.38 1006.73 1007.24 1006.87 1006.48 1005.67 1005.63 1005.63 1004.34 1003.98 1004.46 1004.37 1004.03 1003.55 1002.90 1002.62 1002.92 1003.42 1003.25
1023.58 1023.10 1022.59 1022.13 1021.69 1021.19 1020.74 1020.24 1019.66 1019.12 1018.49 1017.86 1017.28 1016.80 1016.36 1015.62 1014.74 1014.19 1012.30 1010.88 1011.04 1010.61 1008.68 1007.07 1006.86 1006.41 1006.23 1006.74 1005.74 1005.58 1006.33 1005.84 1005.49 1005.13 1004.89 1004.39 1003.66 1004.70 1004.53 1004.03 1003.59 1002.61 1002.71 1002.81 1002.68 1002.51 1002.59
1023.78 1023.26 1022.79 1022.34 1021.77 1021.21 1020.66 1020.16 1019.59 1018.99 1018.48 1017.93 1017.25 1016.68 1016.10 1015.16 1014.55 1012.77 1011.24 1011.28 1011.14 1010.94 1007.99 1006.49 1006.23 1005.77 1006.24 1005.88 1005.22 1005.06 1005.45 1005.28 1005.03 1004.56 1004.35 1004.12 1003.83 1004.16 1004.09 1003.69 1003.57 1002.56 1003.19 1003.03 1002.44 1001.97 1001.02
1023.86 1023.42 1022.92 1022.39 1021.85 1021.29 1020.68 1020.06 1019.43 1018.81 1018.20 1017.73 1017.27 1016.79 1016.37 1016.18 1014.36 1011.96 1011.54 1011.25 1010.83 1010.23 1006.54 1005.99 1005.70 1006.23 1005.68 1005.14 1004.27 1004.61 1004.90 1005.02 1004.53 1004.25 1004.62 1003.32 1003.73 1003.86 1003.57 1003.30 1003.65 1002.88 1003.36 1003.10 1002.72 1001.82 1001.25
1024.02 1023.55 1023.03 1022.52 1021.99 1021.36 1020.66 1019.96 1019.28 1018.65 1017.96 1017.42 1017.03 1016.70 1016.37 1015.03 1013.97 1012.03 1011.69 1011.20 1010.54 1008.32 1005.37 1004.92 1005.06 1005.13 1005.05 1004.86 1004.34 1004.83 1004.97 1005.12 1004.55 1004.27 1004.07 1003.70 1004.04 1003.98 1003.64 1003.46 1003.59 1003.34 1003.06 1002.61 1002.29 1001.55 1000.56
1024.21 1023.68 1023.12 1022.53 1021.96 1021.41 1020.76 1020.03 1019.29 1018.56 1017.82 1017.09 1016.48 1016.14 1016.30 1014.71 1012.25 1012.36 1011.75 1010.25 1008.16 1005.85 1005.29 1004.36 1004.01 1004.19 1003.87 1003.67 1003.77 1003.85 1004.04 1004.29 1003.84 1003.71 1003.28 1003.15 1003.08 1003.19 1003.46 1003.16 1002.77 1002.98 1002.45 1001.43 1000.70 1000.13 999.53
1024.24 1023.78 1023.23 1022.59 1021.96 1021.30 1020.61 1019.94 1019.17 1018.36 1017.52 1016.71 1015.93 1015.42 1014.54 1013.58 1012.94 1012.59 1011.01 1009.00 1006.63 1005.15 1004.47 1004.44 1004.01 1003.81 1003.31 1003.20 1003.26 1003.27 1003.04 1002.80 1003.08 1002.79 1002.30 1001.71 1001.58 1001.88 1002.34 1002.48 1001.97 1001.57 1001.57 1000.85 1000.00 999.70 999.41
1024.23 1023.70 1023.21 1022.63 1022.03 1021.30 1020.52 1019.79 1018.93 1018.00 1017.08 1016.19 1015.27 1013.79 1012.99 1012.54 1012.78 1012.57 1010.10 1007.47 1005.19 1004.94 1004.91 1004.36 1003.72 1003.16 1003.02 1003.17 1003.02 1002.75 1002.56 1001.98 1001.83 1002.52 1002.28 1001.58 1001.55 1001.60 1002.10 1002.02 1002.06 1001.18 1001.21 1001.08 1000.32 1000.00 1000.00
1024.30 1023.72 1023.13 1022.50 1021.92 1021.25 1020.48 1019.65 1018.69 1017.73 1016.73 1015.94 1014.25 1012.42 1011.80 1012.33 1012.49 1011.44 1009.14 1006.69 1005.68 1005.81 1005.31 1004.71 1003.62 1003.57 1002.70 1002.79 1002.60 1002.16 1001.72 1001.35 1001.37 1001.70 1002.10 1001.59 1001.32 1001.28 1001.24 1001.63 1001.74 1001.57 1000.95 1000.62 1000.52 999.78 999.03
1024.43 1023.80 1023.17 1022.53 1021.85 1021.06 1020.27 1019.45 1018.60 1017.58 1016.33 1015.50 1013.68 1011.19 1012.08 1012.26 1011.96 1010.02 1007.56 1006.22 1005.92 1005.97 1005.88 1005.12 1004.45 1003.99 1003.60 1003.21 1002.44 1001.67 1001.03 1000.95 1000.99 1000.99 1001.40 1001.53 1001.36 1000.78 1000.59 1000.84 1000.40 1000.93 1000.86 1000.53 999.63 999.23 998.56
1024.53 1023.95 1023.27 1022.60 1021.84 1021.06 1020.21 1019.34 1018.44 1017.54 1016.04 1015.10 1012.64 1010.32 1011.77 1011.94 1010.24 1008.31 1006.84 1006.67 1007.09 1005.88 1005.91 1005.56 1005.34 1004.78 1004.22 1003.75 1002.93 1002.15 1001.40 1001.02 1001.05 1000.95 1001.22 1001.37 1000.75 1000.14 999.74 999.63 999.77 999.73 999.37 999.27 998.99 999.05 998.79
1024.62 1024.00 1023.37 1022.67 1021.87 1021.15 1020.27 1019.37 1018.47 1017.68 1017.06 1015.10 1011.95 1010.80 1011.32 1011.07 1008.30 1007.43 1007.10 1006.82 1006.61 1006.00 1005.66 1005.39 1005.17 1005.12 1004.85 1004.13 1003.59 1002.55 1001.85 1001.64 1001.72 1001.65 1001.10 1001.41 1000.76 999.63 999.02 998.96 999.65 999.40 999.36 999.29 998.79 998.40 997.95
1024.72 1024.11 1023.49 1022.81 1022.10 1021.32 1020.48 1019.57 1018.55 1017.66 1016.91 1016.07 1012.40 1010.09 1010.08 1009.73 1008.77 1007.14 1006.63 1006.28 1006.15 1006.32 1005.97 1005.75 1005.45 1005.24 1004.91 1004.41 1003.98 1003.24 1002.32 1001.97 1002.31 1002.16 1002.26 1001.87 1000.15 999.60 998.49 997.93 998.92 998.73 998.36 998.13 998.21 997.70 997.42
1024.82 1024.27 1023.67 1023.05 1022.34 1021.54 1020.66 1019.73 1018.66 1017.56 1016.59 1015.81 1012.52 1010.74 1010.68 1008.75 1008.10 1007.38 1007.07 1006.50 1006.06 1006.03 1006.35 1006.22 1005.56 1005.35 1004.77 1004.23 1003.60 1003.01 1002.76 1002.23 1002.02 1002.25 1002.43 1001.68 1000.42 999.94 999.43 999.18 999.20 999.00 998.55 997.98 998.04 997.61 996.87
1024.84 1024.34 1023.74 1023.12 1022.51 1021.78 1020.96 1020.16 1019.10 1017.72 1015.99 1014.46 1013.24 1012.33 1011.15 1009.72 1009.10 1008.17 1007.56 1006.90 1006.56 1006.34 1006.47 1005.87 1005.92 1005.64 1005.44 1004.85 1004.23 1003.27 1002.89 1003.00 1002.26 1001.85 1001.93 1001.39 1000.74 1000.40 999.79 999.17 999.40 998.95 998.47 998.22 997.82 997.68 997.14
1024.84 1024.34 1023.79 1023.20 1022.60 1021.96 1021.28 1020.54 1019.67 1018.55 1016.45 1014.84 1014.73 1014.02 1012.81 1010.33 1008.90 1008.20 1007.06 1007.01 1006.97 1007.39 1006.67 1006.51 1006.39 1006.18 1005.21 1004.90 1005.09 1004.69 1004.20 1003.65 1003.22 1002.89 1002.10 1001.55 1001.02 1000.65 999.72 999.28 999.40 998.95 998.25 998.05 997.77 997.81 997.74
1024.88 1024.42 1023.91 1023.33 1022.74 1022.13 1021.49 1020.86 1020.23 1019.74 1019.40 1017.71 1016.56 1015.55 1012.84 1010.04 1009.53 1008.33 1008.44 1008.39 1007.89 1007.69 1007.43 1007.02 1006.83 1006.29 1006.19 1006.23 1005.31 1004.52 1004.00 1003.34 1003.02 1002.77 1002.56 1002.00 1001.68 1001.07 1000.10 999.63 998.93 998.47 998.16 998.28 998.37 998.11 997.93
1024.85 1024.43 1023.96 1023.45 1022.92 1022.33 1021.76 1021.17 1020.64 1020.18 1019.73 1017.96 1017.33 1016.16 1013.87 1011.30 1010.56 1009.65 1009.37 1008.87 1008.60 1008.32 1007.98 1007.53 1006.98 1006.84 1006.78 1005.82 1004.26 1003.17 1002.65 1002.34 1001.99 1001.82 1002.26 1002.07 1001.80 1000.99 1000.58 999.60 998.88 998.46 998.39 998.78 998.55 998.35 997.90
1024.79 1024.40 1023.96 1023.48 1023.01 1022.45 1021.89 1021.35 1020.82 1020.37 1019.93 1018.35 1017.72 1017.44 1015.41 1013.26 1010.78 1011.18 1010.20 1009.78 1008.92 1008.14 1007.82 1007.49 1007.43 1007.30 1006.66 1005.32 1004.18 1003.46 1002.40 1001.90 1001.67 1001.75 1002.36 1002.20 1002.49 1002.14 1001.06 1000.12 999.35 999.09 999.64 1000.03 999.86 999.07 998.62
1024.69 1024.29 1023.90 1023.44 1023.00 1022.50 1021.94 1021.43 1020.92 1020.46 1020.09 1019.36 1017.91 1018.00 1016.46 1014.19 1012.25 1012.18 1011.01 1010.43 1010.28 1009.56 1008.61 1008.19 1008.08 1007.16 1006.83 1005.38 1004.38 1003.40 1002.56 1002.42 1002.38 1002.06 1002.11 1001.91 1002.07 1001.62 1001.01 1000.64 1000.09 1000.40 1001.16 1001.18 1000.91 1000.49 1000.59
1024.45 1024.08 1023.70 1023.33 1022.92 1022.48 1021.97 1021.47 1021.03 1020.59 1020.23 1019.66 1017.99 1018.25 1017.39 1015.27 1013.35 1012.91 1012.42 1011.71 1010.94 1010.52 1009.46 1009.08 1008.42 1007.74 1006.83 1005.95 1004.92 1004.06 1003.33 1003.08 1003.00 1002.94 1002.87 1002.68 1002.56 1001.94 1001.72 1001.52 1001.64 1002.29 1001.94 1001.96 1002.30 1002.11 1001.65
1024.21 1023.84 1023.45 1023.08 1022.73 1022.34 1021.91 1021.45 1021.04 1020.68 1020.33 1019.98 1017.98 1018.26 1018.19 1016.78 1013.94 1013.71 1013.02 1012.56 1012.12 1011.66 1011.17 1010.05 1009.30 1008.82 1008.12 1007.04 1006.40 1005.78 1004.92 1004.34 1004.22 1003.34 1003.84 1003.90 1003.64 1003.56 1003.30 1002.38 1003.46 1003.35 1003.27 1003.15 1003.14 1002.89 1002.45
Wind_Speed
15 15 15 16 15 15 15 14 15 15 16 15 15 15 15 16 16 15 14 14 14 14 14 13 12 10 7 6 4 2 9 10 10 6 4 2 3 5 5 5 1 4 5 1 5 6 4
16 16 16 16 16 16 16 17 16 16 16 16 15 16 16 16 16 16 16 15 15 16 14 13 11 9 7 7 3 6 12 14 9 8 2 4 6 8 6 5 5 8 7 3 5 9 6
16 16 16 17 17 17 17 17 17 17 17 17 17 16 17 17 17 17 17 17 16 15 14 12 8 6 6 5 2 9 13 13 9 8 3 4 7 9 11 4 7 5 4 8 4 3 3
17 17 16 16 16 17 17 17 17 17 18 18 18 17 17 17 18 18 18 19 17 14 12 7 5 6 3 2 3 11 10 8 7 6 4 4 6 10 5 7 4 3 3 1 6 5 4
17 17 17 17 17 17 17 17 17 17 17 18 19 19 19 18 18 18 19 19 16 10 5 4 6 6 4 3 6 10 11 6 9 7 5 6 9 6 6 5 8 4 3 5 1 4 3
17 18 18 19 19 19 18 17 19 19 18 18 18 18 20 20 20 18 20 16 2 7 7 6 5 7 8 4 7 8 8 6 6 8 8 7 7 7 5 6 7 8 6 4 6 4 7
17 18 18 19 19 19 19 19 19 19 18 19 19 19 19 19 21 21 14 6 7 7 8 7 4 4 5 6 9 9 12 10 8 9 11 6 10 7 6 4 7 8 5 4 7 7 7
18 19 19 19 19 19 19 20 21 21 20 20 20 20 20 20 20 17 8 5 5 7 6 8 10 7 4 1 5 9 12 11 10 13 6 8 11 2 3 6 7 7 9 5 3 3 6
18 18 19 20 19 20 19 21 20 21 21 20 22 21 21 21 22 7 4 4 4 5 7 6 5 7 8 9 6 12 16 11 10 12 11 13 2 1 5 8 9 8 8 8 9 5 7
17 17 17 19 19 19 20 21 21 20 20 20 20 21 21 27 7 5 3 4 7 6 7 10 7 5 8 8 9 11 14 9 8 12 11 10 8 10 10 9 8 14 5 10 11 9 7
18 17 17 18 19 19 19 18 18 19 19 21 20 19 19 13 9 4 5 8 4 6 6 4 7 5 2 14 5 14 14 11 15 11 7 9 6 9 10 8 5 10 6 9 11 13 8
18 18 18 19 20 19 20 20 21 21 21 22 20 18 17 5 5 6 6 6 6 8 4 6 6 8 9 14 12 8 11 9 7 16 14 17 2 6 11 5 9 11 11 10 10 10 11
17 18 19 19 19 19 20 20 21 23 23 22 19 19 10 5 3 6 7 5 7 7 3 6 4 6 9 9 16 14 13 17 14 13 16 18 20 18 12 18 17 11 14 11 12 9 9
17 17 17 19 19 20 20 21 21 23 24 22 20 17 7 5 4 7 6 7 8 3 3 3 2 4 7 7 10 19 14 14 20 19 13 12 13 19 15 16 19 18 17 15 16 11 11
18 18 18 18 19 20 21 22 24 26 26 23 20 4 3 3 4 5 8 9 2 1 2 3 5 7 7 7 5 12 20 18 12 13 19 12 15 12 9 9 7 14 13 18 18 14 11
18 19 19 20 20 20 21 22 24 27 26 21 4 4 4 2 5 7 9 13 2 2 3 4 5 3 5 2 8 9 12 13 23 13 15 15 16 16 11 12 14 14 6 10 12 17 17
18 18 19 20 21 22 22 23 23 28 28 13 5 5 6 6 6 7 11 13 6 4 4 4 1 3 1 3 5 6 5 7 10 9 19 18 14 14 14 12 15 10 14 12 13 8 11
17 18 19 19 21 22 23 24 24 27 30 8 5 5 6 4 8 5 12 8 1 5 5 5 6 8 10 9 9 7 9 11 6 10 13 15 10 13 17 17 13 13 12 14 12 16 11
18 18 18 19 21 22 23 24 25 25 21 7 3 3 5 5 7 9 3 9 8 8 9 5 6 5 3 6 5 6 9 3 6 8 6 8 11 13 15 14 10 14 20 18 17 16 15
17 18 18 19 20 21 22 24 25 25 21 6 5 5 5 6 3 7 9 10 10 6 9 8 9 8 12 13 12 9 8 2 3 10 6 5 14 11 13 8 9 11 15 20 19 15 16
16 17 17 18 19 21 22 24 26 28 23 6 2 4 6 6 8 5 5 3 9 7 7 5 6 12 13 13 14 17 14 13 13 8 6 10 14 14 14 14 10 11 15 14 17 19 22
16 16 17 17 18 19 21 22 25 29 31 3 6 5 1 2 3 8 6 8 8 5 5 5 8 5 9 12 13 12 8 11 11 2 10 11 14 12 16 11 9 10 8 12 15 17 16
16 16 17 17 18 18 19 21 21 26 23 5 3 1 6 4 6 7 5 6 5 1 4 4 5 9 8 4 7 12 14 14 13 11 12 10 10 10 17 17 16 14 18 20 15 14 13
14 15 16 17 17 18 19 19 19 17 18 5 5 5 5 2 5 3 2 3 6 4 7 4 9 7 6 13 16 13 13 14 13 12 10 11 7 11 14 14 16 15 19 8 16 19 17
14 15 15 16 18 18 17 18 17 14 16 6 4 5 4 5 4 8 7 6 8 7 9 7 9 6 11 12 9 8 10 12 14 11 9 9 11 11 11 15 18 20 8 10 11 16 14
13 14 15 16 17 18 18 17 16 14 16 7 3 5 5 6 4 4 7 4 8 6 8 5 3 8 7 8 8 9 10 11 5 7 5 6 7 9 13 13 20 17 12 6 4 14 13
12 13 14 15 16 17 17 17 17 17 16 9 3 5 5 5 2 4 3 6 4 4 6 3 5 4 5 8 10 12 12 11 13 14 12 9 7 11 11 14 14 7 7 5 12 8 13
12 13 13 14 15 16 16 17 16 16 15 8 3 3 5 4 8 5 6 7 5 4 5 6 7 6 6 7 7 10 8 11 7 12 14 13 13 13 13 13 21 14 5 7 9 10 10
13 13 13 13 14 15 16 16 16 14 13 10 3 1 3 6 6 5 11 14 13 10 7 3 6 4 5 5 2 4 7 5 9 12 4 10 9 9 11 7 7 7 9 9 11 9 7
Wind_Direction
26 23 22 20 17 14 11 7 3 1 358 360 356 351 347 344 338 333 331 327 321 318 314 313 314 316 269 231 88 112 143 156 181 218 197 161 330 324 34 350 272 297 18 234 185 177 227
22 20 18 18 14 11 9 5 3 359 356 353 353 347 344 342 335 331 329 326 320 313 308 306 305 303 254 193 74 154 173 166 188 219 202 263 355 347 289 322 328 332 316 279 213 196 219
21 19 16 14 12 8 6 1 359 356 353 349 346 346 344 337 334 331 326 321 315 307 301 296 293 285 254 53 29 164 174 186 194 224 251 290 309 310 332 296 343 303 264 163 119 188 201
17 15 15 12 10 4 2 360 359 354 350 346 343 344 341 336 332 328 322 315 309 301 292 277 263 258 322 75 146 167 177 174 202 214 274 301 292 284 269 313 222 257 240 356 115 182 131
15 13 9 7 7 4 2 359 355 352 348 346 344 341 338 334 329 325 317 307 297 286 262 242 239 272 132 143 190 177 194 197 185 203 228 273 277 289 243 267 191 225 33 12 51 198 155
13 11 6 5 4 2 359 356 354 351 349 346 342 340 337 333 328 325 314 295 343 253 208 223 269 247 178 129 138 164 187 184 190 184 206 228 239 262 211 288 39 347 349 29 9 46 222
10 8 6 3 360 358 355 352 352 350 348 344 341 340 337 333 325 326 312 196 211 188 217 287 61 329 125 102 157 185 178 195 182 218 231 201 260 220 9 356 334 323 318 342 59 19 299
7 6 3 0 358 356 352 350 348 347 344 341 339 338 335 330 323 316 280 268 39 356 282 221 252 266 218 319 178 157 177 202 205 228 201 216 241 174 292 291 301 296 276 80 176 349 280
6 3 360 360 356 354 350 348 346 344 342 339 338 337 335 329 320 268 306 108 49 338 256 164 215 253 216 208 228 172 194 209 222 228 226 261 73 121 276 282 278 254 311 348 335 297 234
5 2 359 357 352 352 349 347 344 339 338 336 334 335 337 329 290 354 170 131 288 278 260 141 188 181 195 230 236 210 208 213 215 244 235 262 267 256 253 255 271 283 27 326 321 308 315
3 2 357 352 351 348 348 341 335 334 335 334 331 330 332 330 322 249 39 320 295 218 258 120 139 91 182 204 110 188 207 213 247 215 240 242 192 207 214 262 282 291 323 323 309 294 298
2 357 352 350 347 342 337 334 333 332 332 330 327 325 328 190 229 303 306 300 238 229 214 142 138 177 176 204 214 133 186 224 259 250 230 266 72 264 267 268 254 296 283 261 257 279 269
3 356 351 347 344 341 337 336 336 337 334 328 321 315 296 303 21 332 304 217 226 253 128 144 150 189 215 182 212 201 186 200 216 214 232 234 236 236 231 262 251 243 261 261 245 224 260
357 353 348 345 344 341 338 340 339 336 332 326 314 311 165 257 306 312 232 222 248 48 236 113 243 228 224 171 214 206 207 211 218 251 267 256 240 225 226 239 267 253 244 257 263 266 293
355 353 349 347 344 341 340 343 342 339 335 330 309 183 206 157 228 251 229 219 274 255 360 299 216 225 168 173 262 208 220 226 219 212 240 251 245 260 255 243 249 239 233 254 281 266 262
355 353 349 347 345 343 342 343 344 342 337 332 288 228 103 355 197 225 227 242 218 302 311 258 272 292 192 159 217 206 186 220 237 219 236 248 265 264 250 212 246 256 327 214 226 260 269
353 352 349 347 346 345 344 344 344 346 337 331 239 220 51 132 202 214 227 225 242 200 289 307 261 279 276 321 288 224 218 205 209 220 220 237 236 265 215 218 246 180 229 235 290 287 278
353 351 349 347 348 346 346 344 345 350 338 272 289 211 140 243 203 211 230 211 355 226 208 274 289 283 281 294 281 259 248 250 218 222 213 221 245 246 256 228 232 282 252 230 232 226 239
354 352 350 349 349 347 347 346 345 350 353 312 309 90 172 257 219 208 168 219 245 230 240 243 259 242 327 279 276 258 281 306 228 221 219 183 226 251 236 199 208 227 235 241 253 250 263
353 353 351 350 350 348 348 347 345 347 347 274 269 190 154 219 298 276 204 221 215 209 253 258 264 268 262 255 244 267 273 334 315 261 38 238 262 251 282 330 346 215 231 229 244 240 244
352 352 351 350 350 349 351 349 348 346 349 271 319 65 360 183 198 224 222 181 213 207 223 221 233 246 259 255 250 247 252 266 271 188 235 256 259 266 268 286 288 270 284 256 237 241 251
350 352 352 350 350 352 353 352 353 350 337 289 332 325 241 285 225 227 169 205 242 190 237 176 243 326 280 252 260 302 332 286 264 248 252 241 261 272 260 244 255 280 273 272 255 250 267
348 351 352 351 350 353 355 356 360 3 342 3 26 224 285 134 212 226 212 232 230 251 200 266 329 309 285 341 316 295 282 275 274 285 287 272 259 232 259 271 291 289 272 277 244 241 254
346 348 350 351 351 353 356 358 2 11 3 315 20 286 274 203 250 272 337 287 252 279 289 307 299 276 35 312 284 251 246 247 244 249 242 269 259 268 268 274 239 253 263 291 290 284 274
344 345 347 351 351 354 356 356 358 3 2 314 343 311 324 287 320 253 251 278 281 254 250 271 291 346 315 291 279 241 227 223 235 232 247 243 279 267 262 257 261 265 229 243 261 273 267
340 341 342 348 348 350 353 355 355 360 3 319 338 318 300 307 106 342 291 297 288 279 264 232 310 318 294 279 278 255 257 271 260 181 225 231 251 264 262 260 269 288 38 3 307 265 269
332 334 335 339 343 345 348 350 352 356 357 326 335 339 279 295 346 291 270 323 321 277 277 267 343 289 243 258 260 261 259 257 257 261 265 247 238 256 254 270 277 31 351 344 255 306 346
325 327 330 332 334 337 341 343 347 351 353 334 338 349 319 298 293 265 273 272 239 247 294 37 267 188 252 261 263 270 261 272 278 277 288 273 270 264 266 262 276 20 282 262 354 329 345
321 322 323 325 327 329 332 334 338 343 346 330 277 112 315 258 309 314 282 276 273 290 304 247 339 315 2 274 214 294 254 252 278 275 147 254 303 319 313 323 348 313 300 316 320 308 337